Tracking 29088 objects as of 14-Jul-2024
HD Live streaming from Space Station
objects crossing your sky now

COSMOS 1275 DEB

Track COSMOS 1275 DEB now!
10-day predictions


NORAD ID: 14364
Int'l Code: 1981-053JA
Perigee: 822.5 km
Apogee: 863.7 km
Inclination: 82.8 °
Period: 101.6 minutes
Semi major axis: 7214 km
RCS: 0.0121 m2 (small)
Launch date: June 4, 1981
Source: Commonwealth of Independent States (former USSR) (CIS)
Launch site: PLESETSK MISSILE AND SPACE COMPLEX (PKMTR)

Note: This is SATELLITE DEBRIS
Your satellite tracking list
Your tracking list is empty




NASA's NSSDC Master Catalog

Two Line Element Set (TLE):
1 14364U 81053HX  24195.80639160  .00005061  00000-0  25075-2 0  9992
2 14364  82.7817 131.1802 0028526 175.1247 185.0216 14.16867546127640
Source of the keplerian elements: AFSPC